05-11-2023, 00:00:06,    163,    0.0,    4.0,   0.00,   0.00,  968.6,    0.5, -999.0
05-11-2023, 00:00:16,    163,    0.0,    4.0,   0.00,   0.00,  968.6,    0.4, -999.0
05-11-2023, 00:00:26,    163,    0.0,    4.0,   0.00,   0.00,  968.6,    0.2, -999.0
05-11-2023, 00:00:36,    163,    0.0,    4.0,   0.00,   0.00,  968.6,    0.3, -999.0
05-11-2023, 00:00:46,    163,    0.0,    4.0,   0.00,   0.00,  968.6,    0.5, -999.0
05-11-2023, 00:00:56,    163,    0.0,    4.0,   0.00,   0.00,  968.6,    0.2, -999.0
05-11-2023, 00:01:06,    163,    0.0,    3.9,   0.00,   0.00,  968.6,    0.2, -999.0
05-11-2023, 00:01:16,    163,    0.0,    4.1,   0.00,   0.00,  968.6,    0.4, -999.0
05-11-2023, 00:01:26,    163,    0.0,    4.1,   0.00,   0.00,  968.6,    0.3, -999.0
05-11-2023, 00:01:36,    162,    0.0,    4.2,   0.00,   0.00,  968.6,    0.5, -999.0
05-11-2023, 00:01:46,    163,    0.0,    4.1,   0.00,   0.00,  968.6,    0.1, -999.0
05-11-2023, 00:01:56,    163,    0.0,    4.1,   0.00,   0.00,  968.6,    0.4, -999.0
05-11-2023, 00:02:06,    163,    0.0,    4.2,   0.00,   0.00,  968.6,    0.3, -999.0
05-11-2023, 00:02:15,    162,    0.0,    4.1,   0.00,   0.00,  968.6,    0.2, -999.0
05-11-2023, 00:02:26,    163,    0.0,    4.1,   0.00,   0.00,  968.6,    0.3, -999.0
05-11-2023, 00:02:36,    163,    0.0,    4.2,   0.00,   0.00,  968.6,    0.5, -999.0
05-11-2023, 00:02:46,    163,    0.0,    4.1,   0.00,   0.00,  968.6,    0.2, -999.0
05-11-2023, 00:02:55,    163,    0.0,    4.1,   0.00,   0.00,  968.6,    0.2, -999.0
05-11-2023, 00:03:05,    163,    0.0,    4.1,   0.00,   0.00,  968.6,    0.3, -999.0
05-11-2023, 00:03:16,    163,    0.0,    4.1,   0.00,   0.00,  968.6,    0.2, -999.0
05-11-2023, 00:03:25,    163,    0.0,    4.1,   0.00,   0.00,  968.6,    0.2, -999.0
05-11-2023, 00:03:35,    163,    0.0,    4.1,   0.00,   0.00,  968.6,    0.3, -999.0
05-11-2023, 00:03:46,    163,    0.0,    4.1,   0.00,   0.00,  968.6,    0.3, -999.0
05-11-2023, 00:03:55,    163,    0.0,    4.1,   0.00,   0.00,  968.6,    0.5, -999.0
05-11-2023, 00:04:05,    163,    0.0,    4.1,   0.00,   0.00,  968.6,    0.2, -999.0
05-11-2023, 00:04:15,    163,    0.0,    4.1,   0.00,   0.00,  968.6,    0.2, -999.0
05-11-2023, 00:04:26,    163,    0.0,    4.1,   0.00,   0.00,  968.6,    0.5, -999.0
05-11-2023, 00:04:35,    163,    0.0,    4.1,   0.00,   0.00,  968.6,    0.5, -999.0
05-11-2023, 00:04:45,    163,    0.0,    4.1,   0.00,   0.00,  968.6,    0.3, -999.0
05-11-2023, 00:04:55,    163,    0.0,    4.0,   0.00,   0.00,  968.6,    0.3, -999.0
05-11-2023, 00:05:05,    163,    0.0,    4.0,   0.00,   0.00,  968.6,    0.5, -999.0
05-11-2023, 00:05:15,    163,    0.0,    3.9,   0.00,   0.00,  968.6,    0.4, -999.0
05-11-2023, 00:05:25,    163,    0.0,    4.0,   0.00,   0.00,  968.6,    0.3, -999.0
05-11-2023, 00:05:35,    163,    0.0,    4.0,   0.00,   0.00,  968.6,    0.4, -999.0
05-11-2023, 00:05:45,    163,    0.0,    4.0,   0.00,   0.00,  968.7,    0.2, -999.0
05-11-2023, 00:05:55,    162,    0.0,    4.0,   0.00,   0.00,  968.6,    0.2, -999.0
05-11-2023, 00:06:05,    163,    0.0,    4.0,   0.00,   0.00,  968.7,    0.4, -999.0
05-11-2023, 00:06:15,    163,    0.0,    3.9,   0.00,   0.00,  968.6,    0.3, -999.0
05-11-2023, 00:06:25,    163,    0.0,    3.9,   0.00,   0.00,  968.7,    0.4, -999.0
05-11-2023, 00:06:35,    162,    0.0,    3.9,   0.00,   0.00,  968.6,    0.4, -999.0
05-11-2023, 00:06:45,    163,    0.0,    4.0,   0.00,   0.00,  968.6,    0.3, -999.0
05-11-2023, 00:06:55,    163,    0.0,    3.9,   0.00,   0.00,  968.7,    0.4, -999.0
05-11-2023, 00:07:05,    163,    0.0,    4.0,   0.00,   0.00,  968.7,    0.3, -999.0
05-11-2023, 00:07:15,    162,    0.0,    3.9,   0.00,   0.00,  968.7,    0.5, -999.0
05-11-2023, 00:07:25,    162,    0.0,    3.9,   0.00,   0.00,  968.7,    0.3, -999.0
05-11-2023, 00:07:35,    163,    0.0,    4.0,   0.00,   0.00,  968.7,    0.4, -999.0
05-11-2023, 00:07:45,    163,    0.0,    4.0,   0.00,   0.00,  968.7,    0.5, -999.0
05-11-2023, 00:07:55,    163,    0.0,    3.9,   0.00,   0.00,  968.7,    0.3, -999.0
05-11-2023, 00:08:05,    162,    0.0,    3.9,   0.00,   0.00,  968.7,    0.3, -999.0
05-11-2023, 00:08:15,    163,    0.0,    4.1,   0.00,   0.00,  968.7,    0.4, -999.0
05-11-2023, 00:08:25,    163,    0.0,    4.0,   0.00,   0.00,  968.7,    0.3, -999.0
05-11-2023, 00:08:35,    163,    0.0,    4.0,   0.00,   0.00,  968.7,    0.4, -999.0
05-11-2023, 00:08:45,    163,    0.0,    4.1,   0.00,   0.00,  968.8,    0.3, -999.0
05-11-2023, 00:08:55,    163,    0.0,    4.1,   0.00,   0.00,  968.7,    0.4, -999.0
05-11-2023, 00:09:05,    163,    0.0,    4.1,   0.00,   0.00,  968.7,    0.3, -999.0
05-11-2023, 00:09:15,    162,    0.0,    4.1,   0.00,   0.00,  968.7,    0.3, -999.0
05-11-2023, 00:09:25,    163,    0.0,    4.1,   0.00,   0.00,  968.7,    0.3, -999.0
05-11-2023, 00:09:34,    163,    0.0,    4.0,   0.00,   0.00,  968.8,    0.2, -999.0
05-11-2023, 00:09:45,    163,    0.0,    4.1,   0.00,   0.00,  968.8,    0.4, -999.0
05-11-2023, 00:09:55,    163,    0.0,    4.1,   0.00,   0.00,  968.8,    0.5, -999.0
05-11-2023, 00:10:05,    163,    0.0,    4.1,   0.00,   0.00,  968.8,    0.4, -999.0
05-11-2023, 00:10:14,    163,    0.0,    4.0,   0.00,   0.00,  968.8,    0.4, -999.0
05-11-2023, 00:10:25,    162,    0.0,    4.1,   0.00,   0.00,  968.8,    0.3, -999.0
05-11-2023, 00:10:35,    163,    0.0,    4.1,   0.00,   0.00,  968.8,    0.3, -999.0
05-11-2023, 00:10:44,    163,    0.0,    4.0,   0.00,   0.00,  968.8,    0.2, -999.0
05-11-2023, 00:10:54,    163,    0.0,    4.1,   0.00,   0.00,  968.8,    0.4, -999.0
05-11-2023, 00:11:05,    163,    0.0,    4.1,   0.00,   0.00,  968.8,    0.4, -999.0
05-11-2023, 00:11:15,    163,    0.0,    4.0,   0.00,   0.00,  968.8,    0.5, -999.0
05-11-2023, 00:11:24,    162,    0.0,    4.0,   0.00,   0.00,  968.8,    0.3, -999.0
05-11-2023, 00:11:34,    162,    0.0,    4.1,   0.00,   0.00,  968.8,    0.3, -999.0
05-11-2023, 00:11:45,    163,    0.0,    4.0,   0.00,   0.00,  968.7,    0.4, -999.0
05-11-2023, 00:11:54,    163,    0.0,    4.0,   0.00,   0.00,  968.8,    0.2, -999.0
05-11-2023, 00:12:04,    163,    0.0,    4.0,   0.00,   0.00,  968.8,    0.3, -999.0
05-11-2023, 00:12:14,    163,    0.0,    4.0,   0.00,   0.00,  968.8,    0.4, -999.0
05-11-2023, 00:12:24,    163,    0.0,    4.0,   0.00,   0.00,  968.8,    0.4, -999.0
05-11-2023, 00:12:34,    163,    0.0,    3.9,   0.00,   0.00,  968.8,    0.3, -999.0
05-11-2023, 00:12:44,    163,    0.0,    3.9,   0.00,   0.00,  968.8,    0.3, -999.0
05-11-2023, 00:12:55,    163,    0.0,    4.0,   0.00,   0.00,  968.8,    0.3, -999.0
05-11-2023, 00:13:04,    162,    0.0,    4.0,   0.00,   0.00,  968.8,    0.3, -999.0
05-11-2023, 00:13:14,    163,    0.0,    4.0,   0.00,   0.00,  968.8,    0.3, -999.0
05-11-2023, 00:13:24,    163,    0.0,    4.0,   0.00,   0.00,  968.8,    0.3, -999.0
05-11-2023, 00:13:34,    163,    0.0,    4.0,   0.00,   0.00,  968.7,    0.4, -999.0
05-11-2023, 00:13:44,    163,    0.0,    4.0,   0.00,   0.00,  968.8,    0.4, -999.0
05-11-2023, 00:13:54,    163,    0.0,    4.0,   0.00,   0.00,  968.8,    0.2, -999.0
05-11-2023, 00:14:04,    163,    0.0,    4.1,   0.00,   0.00,  968.8,    0.2, -999.0
05-11-2023, 00:14:14,    163,    0.0,    4.0,   0.00,   0.00,  968.8,    0.3, -999.0
05-11-2023, 00:14:24,    163,    0.0,    4.0,   0.00,   0.00,  968.8,    0.4, -999.0
05-11-2023, 00:14:34,    163,    0.0,    4.1,   0.00,   0.00,  968.8,    0.3, -999.0
05-11-2023, 00:14:44,    162,    0.0,    4.0,   0.00,   0.00,  968.8,    0.3, -999.0
05-11-2023, 00:14:54,    162,    0.0,    4.1,   0.00,   0.00,  968.8,    0.3, -999.0
05-11-2023, 00:15:04,    163,    0.0,    4.1,   0.00,   0.00,  968.8,    0.3, -999.0
05-11-2023, 00:15:14,    163,    0.0,    4.1,   0.00,   0.00,  968.8,    0.4, -999.0
05-11-2023, 00:15:24,    163,    0.0,    4.1,   0.00,   0.00,  968.8,    0.3, -999.0
05-11-2023, 00:15:34,    163,    0.0,    4.0,   0.00,   0.00,  968.8,    0.4, -999.0
05-11-2023, 00:15:44,    162,    0.0,    4.1,   0.00,   0.00,  968.8,    0.3, -999.0
05-11-2023, 00:15:54,    163,    0.0,    4.1,   0.00,   0.00,  968.8,    0.4, -999.0
05-11-2023, 00:16:04,    163,    0.0,    3.9,   0.00,   0.00,  968.8,    0.3, -999.0
05-11-2023, 00:16:14,    162,    0.0,    4.0,   0.00,   0.00,  968.8,    0.3, -999.0
05-11-2023, 00:16:24,    163,    0.0,    4.0,   0.00,   0.00,  968.8,    0.3, -999.0
05-11-2023, 00:16:34,    163,    0.0,    4.0,   0.00,   0.00,  968.8,    0.5, -999.0
05-11-2023, 00:16:44,    163,    0.0,    4.0,   0.00,   0.00,  968.8,    0.2, -999.0
05-11-2023, 00:16:54,    163,    0.0,    4.0,   0.00,   0.00,  968.8,    0.3, -999.0
05-11-2023, 00:17:04,    163,    0.0,    4.0,   0.00,   0.00,  968.8,    0.2, -999.0
05-11-2023, 00:17:14,    162,    0.0,    3.9,   0.00,   0.00,  968.8,    0.4, -999.0
05-11-2023, 00:17:23,    163,    0.0,    4.0,   0.00,   0.00,  968.8,    0.3, -999.0
05-11-2023, 00:17:34,    163,    0.0,    4.0,   0.00,   0.00,  968.8,    0.4, -999.0
05-11-2023, 00:17:44,    162,    0.0,    4.0,   0.00,   0.00,  968.8,    0.3, -999.0
05-11-2023, 00:17:54,    163,    0.0,    4.0,   0.00,   0.00,  968.8,    0.3, -999.0
05-11-2023, 00:18:04,    163,    0.0,    3.9,   0.00,   0.00,  968.8,    0.4, -999.0
05-11-2023, 00:18:14,    163,    0.0,    3.9,   0.00,   0.00,  968.8,    0.2, -999.0
05-11-2023, 00:18:24,    163,    0.0,    3.9,   0.00,   0.00,  968.8,    0.5, -999.0
05-11-2023, 00:18:33,    163,    0.0,    3.9,   0.00,   0.00,  968.8,    0.3, -999.0
05-11-2023, 00:18:44,    163,    0.0,    4.0,   0.00,   0.00,  968.8,    0.3, -999.0
05-11-2023, 00:18:54,    163,    0.0,    3.9,   0.00,   0.00,  968.8,    0.2, -999.0
05-11-2023, 00:19:03,    163,    0.0,    3.9,   0.00,   0.00,  968.8,    0.3, -999.0
05-11-2023, 00:19:13,    163,    0.0,    3.9,   0.00,   0.00,  968.8,    0.5, -999.0
05-11-2023, 00:19:24,    163,    0.0,    3.9,   0.00,   0.00,  968.8,    0.3, -999.0
05-11-2023, 00:19:34,    163,    0.0,    3.9,   0.00,   0.00,  968.8,    0.2, -999.0
05-11-2023, 00:19:43,    163,    0.0,    3.8,   0.00,   0.00,  968.8,    0.3, -999.0
05-11-2023, 00:19:53,    163,    0.0,    3.9,   0.00,   0.00,  968.8,    0.2, -999.0
05-11-2023, 00:20:03,    162,    0.0,    3.8,   0.00,   0.00,  968.8,    0.3, -999.0
05-11-2023, 00:20:13,    163,    0.0,    3.9,   0.00,   0.00,  968.8,    0.3, -999.0
05-11-2023, 00:20:23,    162,    0.0,    3.9,   0.00,   0.00,  968.8,    0.3, -999.0
05-11-2023, 00:20:33,    162,    0.0,    3.9,   0.00,   0.00,  968.8,    0.4, -999.0
05-11-2023, 00:20:44,    163,    0.0,    3.9,   0.00,   0.00,  968.8,    0.4, -999.0
05-11-2023, 00:20:53,    163,    0.0,    3.9,   0.00,   0.00,  968.8,    0.5, -999.0
05-11-2023, 00:21:03,    163,    0.0,    3.9,   0.00,   0.00,  968.8,    0.4, -999.0
05-11-2023, 00:21:13,    163,    0.0,    3.8,   0.00,   0.00,  968.8,    0.3, -999.0
05-11-2023, 00:21:23,    163,    0.0,    3.8,   0.00,   0.00,  968.8,    0.3, -999.0
05-11-2023, 00:21:33,    162,    0.0,    3.9,   0.00,   0.00,  968.8,    0.4, -999.0
05-11-2023, 00:21:43,    163,    0.0,    3.8,   0.00,   0.00,  968.8,    0.3, -999.0
05-11-2023, 00:21:53,    162,    0.0,    3.9,   0.00,   0.00,  968.8,    0.4, -999.0
05-11-2023, 00:22:03,    163,    0.0,    3.9,   0.00,   0.00,  968.8,    0.4, -999.0
05-11-2023, 00:22:13,    163,    0.0,    3.9,   0.00,   0.00,  968.8,    0.2, -999.0
05-11-2023, 00:22:23,    163,    0.0,    3.7,   0.00,   0.00,  968.8,    0.2, -999.0
05-11-2023, 00:22:33,    163,    0.0,    3.8,   0.00,   0.00,  968.8,    0.4, -999.0
05-11-2023, 00:22:43,    163,    0.0,    3.9,   0.00,   0.00,  968.8,    0.3, -999.0
05-11-2023, 00:22:53,    163,    0.0,    3.7,   0.00,   0.00,  968.8,    0.4, -999.0
05-11-2023, 00:23:03,    163,    0.0,    3.9,   0.00,   0.00,  968.8,    0.4, -999.0
05-11-2023, 00:23:13,    163,    0.0,    3.8,   0.00,   0.00,  968.8,    0.3, -999.0
05-11-2023, 00:23:23,    163,    0.0,    3.8,   0.00,   0.00,  968.8,    0.2, -999.0
05-11-2023, 00:23:33,    163,    0.0,    3.8,   0.00,   0.00,  968.8,    0.4, -999.0
05-11-2023, 00:23:43,    157,    0.0,    3.8,   0.00,   0.00,  968.8,    0.3, -999.0
05-11-2023, 00:23:53,    163,    0.0,    3.8,   0.00,   0.00,  968.8,    0.2, -999.0
05-11-2023, 00:24:03,    163,    0.0,    3.8,   0.00,   0.00,  968.8,    0.4, -999.0
05-11-2023, 00:24:13,    163,    0.0,    3.9,   0.00,   0.00,  968.8,    0.4, -999.0
05-11-2023, 00:24:23,    163,    0.0,    3.8,   0.00,   0.00,  968.8,    0.3, -999.0
05-11-2023, 00:24:33,    163,    0.0,    3.8,   0.00,   0.00,  968.9,    0.6, -999.0
05-11-2023, 00:24:43,    163,    0.0,    3.8,   0.00,   0.00,  968.8,    0.5, -999.0
05-11-2023, 00:24:53,    163,    0.0,    3.8,   0.00,   0.00,  968.9,    0.3, -999.0
05-11-2023, 00:25:03,    163,    0.0,    3.9,   0.00,   0.00,  968.8,    0.2, -999.0
05-11-2023, 00:25:13,    163,    0.0,    3.8,   0.00,   0.00,  968.9,    0.5, -999.0
05-11-2023, 00:25:23,    163,    0.0,    3.9,   0.00,   0.00,  968.9,    0.1, -999.0
05-11-2023, 00:25:33,    163,    0.0,    3.8,   0.00,   0.00,  968.9,    0.5, -999.0
05-11-2023, 00:25:43,    163,    0.0,    3.8,   0.00,   0.00,  968.9,    0.4, -999.0
05-11-2023, 00:25:52,    163,    0.0,    3.7,   0.00,   0.00,  968.9,    0.3, -999.0
05-11-2023, 00:26:03,    162,    0.0,    3.8,   0.00,   0.00,  968.9,    0.2, -999.0
05-11-2023, 00:26:13,    163,    0.0,    3.8,   0.00,   0.00,  968.9,    0.3, -999.0
05-11-2023, 00:26:23,    163,    0.0,    3.8,   0.00,   0.00,  968.9,    0.3, -999.0
05-11-2023, 00:26:32,    163,    0.0,    3.7,   0.00,   0.00,  969.0,    0.4, -999.0
05-11-2023, 00:26:43,    163,    0.0,    3.7,   0.00,   0.00,  968.9,    0.3, -999.0
05-11-2023, 00:26:53,    162,    0.0,    3.7,   0.00,   0.00,  969.0,    0.1, -999.0
05-11-2023, 00:27:02,    163,    0.0,    3.7,   0.00,   0.00,  968.9,    0.3, -999.0
05-11-2023, 00:27:12,    163,    0.0,    3.8,   0.00,   0.00,  968.9,    0.2, -999.0
05-11-2023, 00:27:23,    162,    0.0,    3.8,   0.00,   0.00,  968.9,    0.3, -999.0
05-11-2023, 00:27:33,    163,    0.0,    3.7,   0.00,   0.00,  969.0,    0.3, -999.0
05-11-2023, 00:27:42,    163,    0.0,    3.7,   0.00,   0.00,  969.0,    0.4, -999.0
05-11-2023, 00:27:52,    163,    0.0,    3.8,   0.00,   0.00,  969.0,    0.3, -999.0
05-11-2023, 00:28:03,    163,    0.0,    3.7,   0.00,   0.00,  969.0,    0.5, -999.0
05-11-2023, 00:28:12,    155,    0.0,    3.6,   0.00,   0.00,  969.0,    0.3, -999.0
05-11-2023, 00:28:22,    163,    0.0,    3.7,   0.00,   0.00,  969.0,    0.3, -999.0
05-11-2023, 00:28:32,    163,    0.0,    3.7,   0.00,   0.00,  969.0,    0.3, -999.0
05-11-2023, 00:28:42,    162,    0.0,    3.7,   0.00,   0.00,  969.0,    0.5, -999.0
05-11-2023, 00:28:52,    163,    0.0,    3.7,   0.00,   0.00,  969.0,    0.4, -999.0
05-11-2023, 00:29:02,    163,    0.0,    3.6,   0.00,   0.00,  969.0,    0.3, -999.0
05-11-2023, 00:29:12,    162,    0.0,    3.7,   0.00,   0.00,  969.0,    0.3, -999.0
05-11-2023, 00:29:22,    162,    0.0,    3.7,   0.00,   0.00,  969.0,    0.5, -999.0
05-11-2023, 00:29:32,    163,    0.0,    3.7,   0.00,   0.00,  969.0,    0.4, -999.0
05-11-2023, 00:29:42,    162,    0.0,    3.7,   0.00,   0.00,  969.0,    0.6, -999.0
05-11-2023, 00:29:52,    162,    0.0,    3.7,   0.00,   0.00,  969.0,    0.4, -999.0
05-11-2023, 00:30:02,    163,    0.0,    3.7,   0.00,   0.00,  969.0,    0.1, -999.0
05-11-2023, 00:30:12,    163,    0.0,    3.7,   0.00,   0.00,  969.0,    0.2, -999.0
05-11-2023, 00:30:22,    163,    0.0,    3.7,   0.00,   0.00,  969.0,    0.5, -999.0
05-11-2023, 00:30:32,    162,    0.0,    3.7,   0.00,   0.00,  969.0,    0.2, -999.0
05-11-2023, 00:30:42,    162,    0.0,    3.7,   0.00,   0.00,  969.0,    0.3, -999.0
05-11-2023, 00:30:52,    162,    0.0,    3.7,   0.00,   0.00,  969.0,    0.2, -999.0
05-11-2023, 00:31:02,    163,    0.0,    3.7,   0.00,   0.00,  969.0,    0.3, -999.0
05-11-2023, 00:31:12,    163,    0.0,    3.7,   0.00,   0.00,  969.0,    0.2, -999.0
05-11-2023, 00:31:22,    163,    0.0,    3.7,   0.00,   0.00,  969.0,    0.3, -999.0
05-11-2023, 00:31:32,    159,    0.0,    3.7,   0.00,   0.00,  969.0,    0.3, -999.0
05-11-2023, 00:31:42,    163,    0.0,    3.7,   0.00,   0.00,  969.0,    0.3, -999.0
05-11-2023, 00:31:52,    163,    0.0,    3.7,   0.00,   0.00,  969.0,    0.3, -999.0
05-11-2023, 00:32:02,    162,    0.0,    3.6,   0.00,   0.00,  969.0,    0.4, -999.0
05-11-2023, 00:32:12,    163,    0.0,    3.6,   0.00,   0.00,  969.0,    0.2, -999.0
05-11-2023, 00:32:22,    163,    0.0,    3.6,   0.00,   0.00,  969.0,    0.5, -999.0
05-11-2023, 00:32:32,    163,    0.0,    3.6,   0.00,   0.00,  969.0,    0.3, -999.0
05-11-2023, 00:32:42,    163,    0.0,    3.6,   0.00,   0.00,  969.0,    0.2, -999.0
05-11-2023, 00:32:52,    162,    0.0,    3.6,   0.00,   0.00,  969.0,    0.4, -999.0
05-11-2023, 00:33:02,    163,    0.0,    3.6,   0.00,   0.00,  969.0,    0.4, -999.0
05-11-2023, 00:33:12,    163,    0.0,    3.5,   0.00,   0.00,  969.0,    0.2, -999.0
05-11-2023, 00:33:22,    163,    0.0,    3.6,   0.00,   0.00,  969.0,    0.5, -999.0
05-11-2023, 00:33:32,    163,    0.0,    3.5,   0.00,   0.00,  969.0,    0.4, -999.0
05-11-2023, 00:33:42,    163,    0.0,    3.4,   0.00,   0.00,  969.0,    0.3, -999.0
05-11-2023, 00:33:52,    163,    0.0,    3.5,   0.00,   0.00,  969.0,    0.4, -999.0
05-11-2023, 00:34:02,    163,    0.0,    3.5,   0.00,   0.00,  969.0,    0.4, -999.0
05-11-2023, 00:34:11,    162,    0.0,    3.4,   0.00,   0.00,  969.0,    0.3, -999.0
05-11-2023, 00:34:22,    162,    0.0,    3.4,   0.00,   0.00,  969.0,    0.4, -999.0
05-11-2023, 00:34:32,    162,    0.0,    3.4,   0.00,   0.00,  969.0,    0.5, -999.0
05-11-2023, 00:34:42,    163,    0.0,    3.4,   0.00,   0.00,  969.0,    0.3, -999.0
05-11-2023, 00:34:51,    163,    0.0,    3.3,   0.00,   0.00,  969.0,    0.3, -999.0
05-11-2023, 00:35:02,    163,    0.0,    3.3,   0.00,   0.00,  969.0,    0.3, -999.0
05-11-2023, 00:35:12,    163,    0.0,    3.3,   0.00,   0.00,  969.0,    0.3, -999.0
05-11-2023, 00:35:21,    163,    0.0,    3.3,   0.00,   0.00,  969.0,    0.5, -999.0
05-11-2023, 00:35:31,    162,    0.0,    3.3,   0.00,   0.00,  969.1,    0.3, -999.0
05-11-2023, 00:35:42,    162,    0.0,    3.3,   0.00,   0.00,  969.0,    0.3, -999.0
05-11-2023, 00:35:51,    163,    0.0,    3.3,   0.00,   0.00,  969.1,    0.4, -999.0
05-11-2023, 00:36:01,    163,    0.0,    3.3,   0.00,   0.00,  969.0,    0.2, -999.0
05-11-2023, 00:36:11,    163,    0.0,    3.3,   0.00,   0.00,  969.0,    0.4, -999.0
05-11-2023, 00:36:22,    163,    0.0,    3.3,   0.00,   0.00,  969.0,    0.4, -999.0
05-11-2023, 00:36:31,    163,    0.0,    3.2,   0.00,   0.00,  969.0,    0.3, -999.0
05-11-2023, 00:36:41,    163,    0.0,    3.3,   0.00,   0.00,  969.0,    0.3, -999.0
05-11-2023, 00:36:51,    163,    0.0,    3.3,   0.00,   0.00,  969.0,    0.4, -999.0
05-11-2023, 00:37:01,    163,    0.0,    3.3,   0.00,   0.00,  969.0,    0.3, -999.0
05-11-2023, 00:37:11,    163,    0.0,    3.3,   0.00,   0.00,  969.0,    0.4, -999.0
05-11-2023, 00:37:21,    162,    0.0,    3.3,   0.00,   0.00,  969.0,    0.3, -999.0
05-11-2023, 00:37:31,    163,    0.0,    3.3,   0.00,   0.00,  969.0,    0.3, -999.0
05-11-2023, 00:37:41,    163,    0.0,    3.3,   0.00,   0.00,  969.1,    0.4, -999.0
05-11-2023, 00:37:51,    163,    0.0,    3.3,   0.00,   0.00,  969.1,    0.3, -999.0
05-11-2023, 00:38:01,    163,    0.0,    3.3,   0.00,   0.00,  969.0,    0.3, -999.0
05-11-2023, 00:38:11,    163,    0.0,    3.2,   0.00,   0.00,  969.0,    0.4, -999.0
05-11-2023, 00:38:21,    163,    0.0,    3.3,   0.00,   0.00,  969.1,    0.2, -999.0
05-11-2023, 00:38:31,    163,    0.0,    3.3,   0.00,   0.00,  969.1,    0.4, -999.0
05-11-2023, 00:38:41,    163,    0.0,    3.2,   0.00,   0.00,  969.0,    0.3, -999.0
05-11-2023, 00:38:51,    163,    0.0,    3.2,   0.00,   0.00,  969.0,    0.5, -999.0
05-11-2023, 00:39:01,    163,    0.0,    3.2,   0.00,   0.00,  969.0,    0.3, -999.0
05-11-2023, 00:39:11,    163,    0.0,    3.2,   0.00,   0.00,  969.1,    0.4, -999.0
05-11-2023, 00:39:21,    163,    0.0,    3.2,   0.00,   0.00,  969.1,    0.5, -999.0
05-11-2023, 00:39:31,    163,    0.0,    3.1,   0.00,   0.00,  969.0,    0.4, -999.0
05-11-2023, 00:39:41,    163,    0.0,    3.2,   0.00,   0.00,  969.0,    0.3, -999.0
05-11-2023, 00:39:51,    163,    0.0,    3.2,   0.00,   0.00,  969.1,    0.3, -999.0
05-11-2023, 00:40:01,    168,    0.0,    3.1,   0.00,   0.00,  969.1,    0.3, -999.0
05-11-2023, 00:40:11,    168,    0.0,    3.1,   0.00,   0.00,  969.1,    0.3, -999.0
05-11-2023, 00:40:22,    168,    0.0,    3.1,   0.00,   0.00,  969.1,    0.3, -999.0
05-11-2023, 00:40:31,    168,    0.0,    3.2,   0.00,   0.00,  969.1,    0.4, -999.0
05-11-2023, 00:40:41,    168,    0.0,    3.1,   0.00,   0.00,  969.1,    0.4, -999.0
05-11-2023, 00:40:51,    168,    0.0,    3.1,   0.00,   0.00,  969.1,    0.3, -999.0
05-11-2023, 00:41:01,    167,    0.0,    3.1,   0.00,   0.00,  969.1,    0.3, -999.0
05-11-2023, 00:41:11,    168,    0.0,    3.1,   0.00,   0.00,  969.2,    0.3, -999.0
05-11-2023, 00:41:21,    168,    0.0,    3.1,   0.00,   0.00,  969.1,    0.3, -999.0
05-11-2023, 00:41:31,    168,    0.0,    3.1,   0.00,   0.00,  969.1,    0.3, -999.0
05-11-2023, 00:41:42,    168,    0.0,    3.0,   0.00,   0.00,  969.1,    0.3, -999.0
05-11-2023, 00:41:51,    168,    0.0,    3.1,   0.00,   0.00,  969.1,    0.4, -999.0
05-11-2023, 00:42:00,    168,    0.0,    3.0,   0.00,   0.00,  969.2,    0.4, -999.0
05-11-2023, 00:42:11,    168,    0.0,    3.0,   0.00,   0.00,  969.1,    0.3, -999.0
05-11-2023, 00:42:21,    168,    0.0,    3.1,   0.00,   0.00,  969.1,    0.5, -999.0
05-11-2023, 00:42:31,    168,    0.0,    3.0,   0.00,   0.00,  969.1,    0.3, -999.0
05-11-2023, 00:42:40,    168,    0.0,    3.0,   0.00,   0.00,  969.1,    0.4, -999.0
05-11-2023, 00:42:51,    168,    0.0,    2.9,   0.00,   0.00,  969.1,    0.3, -999.0
05-11-2023, 00:43:01,    168,    0.0,    3.0,   0.00,   0.00,  969.2,    0.3, -999.0
05-11-2023, 00:43:10,    168,    0.0,    3.0,   0.00,   0.00,  969.2,    0.4, -999.0
05-11-2023, 00:43:21,    168,    0.0,    3.0,   0.00,   0.00,  969.2,    0.2, -999.0
05-11-2023, 00:43:31,    168,    0.0,    2.9,   0.00,   0.00,  969.1,    0.3, -999.0
05-11-2023, 00:43:40,    168,    0.0,    3.1,   0.00,   0.00,  969.1,    0.3, -999.0
05-11-2023, 00:43:50,    168,    0.0,    3.0,   0.00,   0.00,  969.2,    0.3, -999.0
05-11-2023, 00:44:01,    168,    0.0,    3.0,   0.00,   0.00,  969.2,    0.3, -999.0
05-11-2023, 00:44:11,    168,    0.0,    3.0,   0.00,   0.00,  969.2,    0.0, -999.0
05-11-2023, 00:44:20,    168,    0.0,    3.0,   0.00,   0.00,  969.2,    0.3, -999.0
05-11-2023, 00:44:30,    168,    0.0,    3.0,   0.00,   0.00,  969.2,    0.4, -999.0
05-11-2023, 00:44:41,    168,    0.0,    3.0,   0.00,   0.00,  969.2,    0.4, -999.0
05-11-2023, 00:44:50,    168,    0.0,    3.0,   0.00,   0.00,  969.2,    0.0, -999.0
05-11-2023, 00:45:00,    168,    0.0,    3.0,   0.00,   0.00,  969.2,    0.4, -999.0
05-11-2023, 00:45:10,    168,    0.0,    3.0,   0.00,   0.00,  969.2,    0.3, -999.0
05-11-2023, 00:45:21,    168,    0.0,    3.0,   0.00,   0.00,  969.2,    0.4, -999.0
05-11-2023, 00:45:30,    168,    0.0,    3.0,   0.00,   0.00,  969.2,    0.4, -999.0
05-11-2023, 00:45:40,    168,    0.0,    3.0,   0.00,   0.00,  969.2,    0.3, -999.0
05-11-2023, 00:45:50,    168,    0.0,    3.0,   0.00,   0.00,  969.2,    0.4, -999.0
05-11-2023, 00:46:00,    168,    0.0,    3.0,   0.00,   0.00,  969.2,    0.4, -999.0
05-11-2023, 00:46:10,    168,    0.0,    3.0,   0.00,   0.00,  969.2,    0.5, -999.0
05-11-2023, 00:46:20,    168,    0.0,    3.0,   0.00,   0.00,  969.2,    0.2, -999.0
05-11-2023, 00:46:30,    168,    0.0,    3.0,   0.00,   0.00,  969.2,    0.3, -999.0
05-11-2023, 00:46:40,    168,    0.0,    3.0,   0.00,   0.00,  969.2,    0.2, -999.0
05-11-2023, 00:46:50,    168,    0.0,    3.0,   0.00,   0.00,  969.2,    0.4, -999.0